Time,TemperatureF,DewpointF,PressureIn,WindDirection,WindDirectionDegrees,WindSpeedMPH,WindSpeedGustMPH,Humidity,HourlyPrecipIn,Conditions,Clouds,dailyrainin,SoftwareType,DateUTC
2013-03-19 00:01:00,63.8,53.8,30.04,SSW,201,0.0,0.0,70,0.00,CLR,,0.00,WeatherDisplay:10.37,2013-03-18 13:01:00,
2013-03-19 00:16:00,63.5,53.9,30.05,SSW,200,0.0,0.0,71,0.00,CLR,,0.00,WeatherDisplay:10.37,2013-03-18 13:16:00,
2013-03-19 00:21:00,63.3,53.8,30.04,SSW,202,0.0,0.0,71,0.00,CLR,,0.00,WeatherDisplay:10.37,2013-03-18 13:21:00,
2013-03-19 00:26:00,63.3,54.1,30.04,SSW,202,0.0,0.0,72,0.00,CLR,,0.00,WeatherDisplay:10.37,2013-03-18 13:26:00,
2013-03-19 00:51:00,62.8,53.6,30.04,SSW,198,0.0,0.0,72,0.00,CLR,,0.00,WeatherDisplay:10.37,2013-03-18 13:51:00,
2013-03-19 01:16:00,62.4,53.6,30.04,South,180,0.0,0.0,73,0.00,CLR,,0.00,WeatherDisplay:10.37,2013-03-18 14:16:00,
2013-03-19 01:21:00,62.4,53.6,30.04,South,180,0.0,0.0,73,0.00,CLR,,0.00,WeatherDisplay:10.37,2013-03-18 14:21:00,
2013-03-19 01:26:00,62.4,53.6,30.04,South,180,0.0,0.0,73,0.00,CLR,,0.00,WeatherDisplay:10.37,2013-03-18 14:26:00,
2013-03-19 01:36:00,62.2,53.5,30.04,South,190,0.0,0.0,73,0.00,CLR,,0.00,WeatherDisplay:10.37,2013-03-18 14:36:00,
2013-03-19 01:46:00,61.9,53.1,30.04,SSW,200,0.0,0.0,73,0.00,CLR,,0.00,WeatherDisplay:10.37,2013-03-18 14:46:00,
2013-03-19 01:51:00,61.9,53.1,30.04,SSW,202,0.0,0.0,73,0.00,CLR,,0.00,WeatherDisplay:10.37,2013-03-18 14:51:00,
2013-03-19 02:01:00,61.5,53.2,30.04,SSW,206,0.0,0.0,74,0.00,CLR,,0.00,WeatherDisplay:10.37,2013-03-18 15:01:00,
2013-03-19 02:06:00,61.5,53.2,30.03,SSW,206,0.0,0.0,74,0.00,CLR,,0.00,WeatherDisplay:10.37,2013-03-18 15:06:00,
2013-03-19 02:26:00,61.3,53.0,30.03,SSW,202,0.0,0.0,74,0.00,CLR,,0.00,WeatherDisplay:10.37,2013-03-18 15:26:00,
2013-03-19 02:31:00,61.3,53.0,30.03,SSW,202,0.0,0.0,74,0.00,CLR,,0.00,WeatherDisplay:10.37,2013-03-18 15:31:00,
2013-03-19 02:51:00,61.0,52.6,30.03,SW,236,0.0,0.0,74,0.00,CLR,,0.00,WeatherDisplay:10.37,2013-03-18 15:51:00,
2013-03-19 02:56:00,61.0,52.6,30.03,West,265,0.0,0.0,74,0.00,CLR,,0.00,WeatherDisplay:10.37,2013-03-18 15:56:00,
2013-03-19 03:01:00,61.0,52.6,30.03,WSW,241,0.0,0.0,74,0.00,CLR,,0.00,WeatherDisplay:10.37,2013-03-18 16:01:00,
2013-03-19 03:31:00,60.6,52.6,30.03,South,184,0.0,0.0,75,0.00,CLR,,0.00,WeatherDisplay:10.37,2013-03-18 16:31:00,
2013-03-19 03:36:00,60.4,52.5,30.03,South,180,0.0,0.0,75,0.00,CLR,,0.00,WeatherDisplay:10.37,2013-03-18 16:36:00,
2013-03-19 04:41:00,59.5,51.6,30.03,North,2,0.0,0.0,75,0.00,CLR,,0.00,WeatherDisplay:10.37,2013-03-18 17:41:00,
2013-03-19 04:56:00,59.2,51.6,30.03,NNE,22,0.0,0.0,76,0.00,CLR,,0.00,WeatherDisplay:10.37,2013-03-18 17:56:00,
2013-03-19 05:01:00,59.2,51.6,30.03,North,4,0.0,0.0,76,0.00,CLR,,0.00,WeatherDisplay:10.37,2013-03-18 18:01:00,
2013-03-19 05:16:00,59.2,51.6,30.03,South,184,0.0,0.0,76,0.00,CLR,,0.00,WeatherDisplay:10.37,2013-03-18 18:16:00,
2013-03-19 05:21:00,59.0,51.5,30.04,South,180,0.0,0.0,76,0.00,CLR,,0.00,WeatherDisplay:10.37,2013-03-18 18:21:00,
2013-03-19 05:26:00,59.0,51.4,30.04,South,178,0.0,0.0,76,0.00,CLR,,0.00,WeatherDisplay:10.37,2013-03-18 18:26:00,
2013-03-19 05:36:00,58.8,51.6,30.04,South,177,0.0,0.0,77,0.00,CLR,,0.00,WeatherDisplay:10.37,2013-03-18 18:36:00,
2013-03-19 05:41:00,58.8,51.6,30.04,East,101,0.0,0.0,77,0.00,CLR,,0.00,WeatherDisplay:10.37,2013-03-18 18:41:00,
2013-03-19 05:46:00,58.8,51.6,30.04,NNE,24,0.0,0.0,77,0.00,CLR,,0.00,WeatherDisplay:10.37,2013-03-18 18:46:00,
2013-03-19 05:56:00,58.8,51.6,30.05,NNE,28,0.0,5.0,77,0.00,CLR,,0.00,WeatherDisplay:10.37,2013-03-18 18:56:00,
2013-03-19 06:21:00,58.5,51.3,30.06,NNE,26,0.0,0.0,77,0.00,CLR,,0.00,WeatherDisplay:10.37,2013-03-18 19:21:00,
2013-03-19 06:26:00,58.5,51.3,30.06,NE,35,0.0,0.0,77,0.00,CLR,,0.00,WeatherDisplay:10.37,2013-03-18 19:26:00,
2013-03-19 06:41:00,58.3,51.4,30.06,North,358,0.0,0.0,78,0.00,CLR,,0.00,WeatherDisplay:10.37,2013-03-18 19:41:00,
2013-03-19 06:46:00,58.3,51.4,30.06,WNW,292,0.0,0.0,78,0.00,CLR,,0.00,WeatherDisplay:10.37,2013-03-18 19:46:00,
2013-03-19 06:51:00,58.3,51.4,30.06,NW,322,0.0,0.0,78,0.00,CLR,,0.00,WeatherDisplay:10.37,2013-03-18 19:51:00,
2013-03-19 07:01:00,58.3,51.4,30.06,North,2,0.0,0.0,78,0.00,CLR,,0.00,WeatherDisplay:10.37,2013-03-18 20:01:00,
2013-03-19 07:16:00,58.3,51.4,30.07,NNE,18,0.0,0.0,78,0.00,CLR,,0.00,WeatherDisplay:10.37,2013-03-18 20:16:00,
2013-03-19 07:26:00,58.3,51.4,30.07,NNE,17,0.0,0.0,78,0.00,CLR,,0.00,WeatherDisplay:10.37,2013-03-18 20:26:00,
2013-03-19 07:31:00,58.1,51.3,30.07,NNE,18,0.0,0.0,78,0.00,CLR,,0.00,WeatherDisplay:10.37,2013-03-18 20:31:00,
2013-03-19 07:46:00,58.3,51.9,30.08,NE,45,0.0,1.0,79,0.00,CLR,,0.00,WeatherDisplay:10.37,2013-03-18 20:46:00,
2013-03-19 07:56:00,58.6,52.1,30.08,NE,48,0.0,0.0,79,0.00,CLR,,0.00,WeatherDisplay:10.37,2013-03-18 20:56:00,
2013-03-19 08:16:00,60.0,54.2,30.08,SW,227,0.0,5.0,81,0.00,CLR,,0.00,WeatherDisplay:10.37,2013-03-18 21:16:00,
2013-03-19 08:21:00,60.4,54.6,30.08,SW,218,5.0,6.0,81,0.00,CLR,,0.00,WeatherDisplay:10.37,2013-03-18 21:21:00,
2013-03-19 08:56:00,64.5,57.8,30.09,SSW,207,3.0,6.0,79,0.00,CLR,,0.00,WeatherDisplay:10.37,2013-03-18 21:56:00,
2013-03-19 09:06:00,65.7,58.3,30.09,SSW,211,1.0,7.0,77,0.00,CLR,,0.00,WeatherDisplay:10.37,2013-03-18 22:06:00,
2013-03-19 09:16:00,66.9,59.1,30.09,SSW,205,2.0,6.0,76,0.00,CLR,,0.00,WeatherDisplay:10.37,2013-03-18 22:16:00,
2013-03-19 09:21:00,67.7,59.4,30.09,SSW,211,5.0,8.0,75,0.00,CLR,,0.00,WeatherDisplay:10.37,2013-03-18 22:21:00,
2013-03-19 09:41:00,70.2,60.7,30.09,SSW,196,1.0,6.0,72,0.00,CLR,,0.00,WeatherDisplay:10.37,2013-03-18 22:41:00,
2013-03-19 10:21:00,73.2,61.6,30.10,SW,236,0.0,4.0,67,0.00,CLR,,0.00,WeatherDisplay:10.37,2013-03-18 23:21:00,
2013-03-19 10:31:00,74.2,61.2,30.10,ENE,76,0.0,3.0,64,0.00,CLR,,0.00,WeatherDisplay:10.37,2013-03-18 23:31:00,
2013-03-19 10:46:00,74.8,60.9,30.10,NW,309,0.0,6.0,62,0.00,CLR,,0.00,WeatherDisplay:10.37,2013-03-18 23:46:00,
2013-03-19 10:51:00,74.7,61.2,30.09,NNW,333,1.0,5.0,63,0.00,CLR,,0.00,WeatherDisplay:10.37,2013-03-18 23:51:00,
2013-03-19 11:06:00,73.8,59.9,30.10,NNW,331,0.0,0.0,62,0.00,CLR,,0.00,WeatherDisplay:10.37,2013-03-19 00:06:00,
2013-03-19 11:26:00,72.1,59.3,30.10,WSW,239,1.0,4.0,64,0.00,CLR,,0.00,WeatherDisplay:10.37,2013-03-19 00:26:00,
2013-03-19 11:56:00,71.2,59.3,30.09,SSW,204,0.0,0.0,66,0.00,CLR,,0.00,WeatherDisplay:10.37,2013-03-19 00:56:00,
2013-03-19 12:01:00,71.2,59.3,30.09,South,190,0.0,2.0,66,0.00,CLR,,0.00,WeatherDisplay:10.37,2013-03-19 01:01:00,
2013-03-19 12:06:00,71.4,59.0,30.08,NE,44,0.0,2.0,65,0.00,CLR,,0.00,WeatherDisplay:10.37,2013-03-19 01:06:00,
2013-03-19 12:16:00,71.4,59.0,30.08,SE,133,0.0,1.0,65,0.00,CLR,,0.00,WeatherDisplay:10.37,2013-03-19 01:16:00,
2013-03-19 12:21:00,71.4,59.0,30.08,SSE,150,0.0,3.0,65,0.00,CLR,,0.00,WeatherDisplay:10.37,2013-03-19 01:21:00,
2013-03-19 12:31:00,71.8,59.4,30.08,East,91,1.0,5.0,65,0.00,CLR,,0.00,WeatherDisplay:10.37,2013-03-19 01:31:00,
2013-03-19 12:41:00,72.7,59.9,30.08,SW,218,1.0,8.0,64,0.00,CLR,,0.00,WeatherDisplay:10.37,2013-03-19 01:41:00,
2013-03-19 12:46:00,73.2,60.3,30.08,SW,236,0.0,8.0,64,0.00,CLR,,0.00,WeatherDisplay:10.37,2013-03-19 01:46:00,
2013-03-19 13:46:00,77.0,60.6,30.05,WNW,297,1.0,5.0,57,0.00,CLR,,0.00,WeatherDisplay:10.37,2013-03-19 02:46:00,
2013-03-19 13:51:00,77.4,60.5,30.05,SW,233,1.0,4.0,56,0.00,CLR,,0.00,WeatherDisplay:10.37,2013-03-19 02:51:00,
2013-03-19 13:56:00,77.8,60.4,30.05,WSW,249,0.0,4.0,55,0.00,CLR,,0.00,WeatherDisplay:10.37,2013-03-19 02:56:00,
2013-03-19 14:01:00,77.8,59.8,30.05,WSW,241,0.0,3.0,54,0.00,CLR,,0.00,WeatherDisplay:10.37,2013-03-19 03:01:00,
2013-03-19 14:06:00,77.6,59.6,30.05,SW,235,1.0,9.0,54,0.00,CLR,,0.00,WeatherDisplay:10.37,2013-03-19 03:06:00,
2013-03-19 14:11:00,77.5,59.6,30.05,WSW,247,1.0,10.0,54,0.00,CLR,,0.00,WeatherDisplay:10.37,2013-03-19 03:11:00,
2013-03-19 14:16:00,77.5,59.6,30.05,WNW,300,3.0,8.0,54,0.00,CLR,,0.00,WeatherDisplay:10.37,2013-03-19 03:16:00,
2013-03-19 14:26:00,78.1,59.6,30.05,WNW,284,1.0,6.0,53,0.00,CLR,,0.00,WeatherDisplay:10.37,2013-03-19 03:26:00,
2013-03-19 14:36:00,78.6,59.5,30.04,SSW,200,2.0,8.0,52,0.00,CLR,,0.00,WeatherDisplay:10.37,2013-03-19 03:36:00,
2013-03-19 14:41:00,79.0,59.9,30.05,WSW,238,1.0,5.0,52,0.00,CLR,,0.00,WeatherDisplay:10.37,2013-03-19 03:41:00,
2013-03-19 14:51:00,79.4,59.7,30.04,WNW,299,1.0,3.0,51,0.00,CLR,,0.00,WeatherDisplay:10.37,2013-03-19 03:51:00,
2013-03-19 14:56:00,79.5,59.3,30.05,NW,304,6.0,6.0,50,0.00,CLR,,0.00,WeatherDisplay:10.37,2013-03-19 03:56:00,
2013-03-19 15:06:00,80.0,59.1,30.05,WSW,237,2.0,5.0,49,0.00,CLR,,0.00,WeatherDisplay:10.37,2013-03-19 04:06:00,
2013-03-19 15:11:00,79.7,58.8,30.05,East,93,2.0,6.0,49,0.00,CLR,,0.00,WeatherDisplay:10.37,2013-03-19 04:11:00,
2013-03-19 15:26:00,78.6,58.4,30.04,WNW,289,1.0,6.0,50,0.00,CLR,,0.00,WeatherDisplay:10.37,2013-03-19 04:26:00,
2013-03-19 15:36:00,78.8,58.6,30.04,SW,226,0.0,4.0,50,0.00,CLR,,0.00,WeatherDisplay:10.37,2013-03-19 04:36:00,
2013-03-19 15:41:00,78.6,58.4,30.04,SSW,204,1.0,5.0,50,0.00,CLR,,0.00,WeatherDisplay:10.37,2013-03-19 04:41:00,
2013-03-19 15:56:00,78.4,58.8,30.04,NNE,19,0.0,4.0,51,0.00,CLR,,0.00,WeatherDisplay:10.37,2013-03-19 04:56:00,
2013-03-19 16:01:00,78.4,58.3,30.05,SE,133,1.0,10.0,50,0.00,CLR,,0.00,WeatherDisplay:10.37,2013-03-19 05:01:00,
2013-03-19 16:11:00,78.4,58.8,30.05,WNW,294,1.0,4.0,51,0.00,CLR,,0.00,WeatherDisplay:10.37,2013-03-19 05:11:00,
2013-03-19 16:21:00,78.4,58.8,30.04,NNW,343,1.0,5.0,51,0.00,CLR,,0.00,WeatherDisplay:10.37,2013-03-19 05:21:00,
2013-03-19 16:26:00,78.4,58.8,30.04,ESE,122,1.0,7.0,51,0.00,CLR,,0.00,WeatherDisplay:10.37,2013-03-19 05:26:00,
2013-03-19 16:46:00,77.2,58.2,30.05,West,276,0.0,5.0,52,0.00,CLR,,0.00,WeatherDisplay:10.37,2013-03-19 05:46:00,
2013-03-19 16:56:00,76.8,58.4,30.05,West,281,1.0,5.0,53,0.00,CLR,,0.00,WeatherDisplay:10.37,2013-03-19 05:56:00,
2013-03-19 17:01:00,76.8,58.9,30.05,SW,234,1.0,3.0,54,0.00,CLR,,0.00,WeatherDisplay:10.37,2013-03-19 06:01:00,
2013-03-19 17:06:00,76.8,58.9,30.05,West,269,0.0,3.0,54,0.00,CLR,,0.00,WeatherDisplay:10.37,2013-03-19 06:06:00,
2013-03-19 17:16:00,76.8,58.9,30.06,NNW,332,0.0,5.0,54,0.00,CLR,,0.00,WeatherDisplay:10.37,2013-03-19 06:16:00,
2013-03-19 17:26:00,76.3,58.4,30.06,ENE,66,1.0,5.0,54,0.00,CLR,,0.00,WeatherDisplay:10.37,2013-03-19 06:26:00,
2013-03-19 17:31:00,75.9,58.6,30.06,NNE,27,1.0,4.0,55,0.00,CLR,,0.00,WeatherDisplay:10.37,2013-03-19 06:31:00,
2013-03-19 17:36:00,75.7,58.4,30.06,NNW,331,0.0,3.0,55,0.00,CLR,,0.00,WeatherDisplay:10.37,2013-03-19 06:36:00,
2013-03-19 17:51:00,75.0,57.8,30.06,NW,326,0.0,2.0,55,0.00,CLR,,0.00,WeatherDisplay:10.37,2013-03-19 06:51:00,
2013-03-19 17:56:00,74.8,57.6,30.06,NNE,20,1.0,3.0,55,0.00,CLR,,0.00,WeatherDisplay:10.37,2013-03-19 06:56:00,
2013-03-19 18:01:00,74.5,57.3,30.06,North,349,2.0,4.0,55,0.00,CLR,,0.00,WeatherDisplay:10.37,2013-03-19 07:01:00,
2013-03-19 18:06:00,74.3,57.6,30.06,NNW,332,0.0,9.0,56,0.00,CLR,,0.00,WeatherDisplay:10.37,2013-03-19 07:06:00,
2013-03-19 18:11:00,74.0,57.3,30.06,NW,314,0.0,3.0,56,0.00,CLR,,0.00,WeatherDisplay:10.37,2013-03-19 07:11:00,
2013-03-19 18:16:00,73.9,57.7,30.06,NW,317,0.0,4.0,57,0.00,CLR,,0.00,WeatherDisplay:10.37,2013-03-19 07:16:00,
2013-03-19 18:21:00,73.7,58.0,30.06,ENE,62,0.0,2.0,58,0.00,CLR,,0.00,WeatherDisplay:10.37,2013-03-19 07:21:00,
2013-03-19 18:31:00,73.2,57.6,30.07,SE,124,1.0,5.0,58,0.00,CLR,,0.00,WeatherDisplay:10.37,2013-03-19 07:31:00,
2013-03-19 18:41:00,72.9,57.8,30.07,ENE,62,0.0,2.0,59,0.00,CLR,,0.00,WeatherDisplay:10.37,2013-03-19 07:41:00,
2013-03-19 18:46:00,72.8,58.1,30.07,ENE,64,0.0,3.0,60,0.00,CLR,,0.00,WeatherDisplay:10.37,2013-03-19 07:46:00,
2013-03-19 18:51:00,72.6,58.4,30.07,ENE,76,1.0,4.0,61,0.00,CLR,,0.00,WeatherDisplay:10.37,2013-03-19 07:51:00,
2013-03-19 18:56:00,72.3,58.1,30.07,ESE,104,1.0,5.0,61,0.00,CLR,,0.00,WeatherDisplay:10.37,2013-03-19 07:56:00,
2013-03-19 19:01:00,72.3,58.1,30.07,ENE,77,0.0,4.0,61,0.00,CLR,,0.00,WeatherDisplay:10.37,2013-03-19 08:01:00,
2013-03-19 19:11:00,72.0,58.2,30.08,NE,56,0.0,3.0,62,0.00,CLR,,0.00,WeatherDisplay:10.37,2013-03-19 08:11:00,
2013-03-19 19:26:00,71.6,58.3,30.08,SSE,158,0.0,0.0,63,0.00,CLR,,0.00,WeatherDisplay:10.37,2013-03-19 08:26:00,
2013-03-19 19:31:00,71.4,58.2,30.08,East,87,0.0,0.0,63,0.00,CLR,,0.00,WeatherDisplay:10.37,2013-03-19 08:31:00,
2013-03-19 19:36:00,71.4,58.2,30.08,ENE,61,0.0,0.0,63,0.00,CLR,,0.00,WeatherDisplay:10.37,2013-03-19 08:36:00,
2013-03-19 19:41:00,71.4,58.6,30.08,East,91,0.0,0.0,64,0.00,CLR,,0.00,WeatherDisplay:10.37,2013-03-19 08:41:00,
2013-03-19 19:46:00,71.2,58.4,30.08,ENE,72,0.0,0.0,64,0.00,CLR,,0.00,WeatherDisplay:10.37,2013-03-19 08:46:00,
2013-03-19 19:51:00,71.1,58.3,30.09,ENE,61,0.0,0.0,64,0.00,CLR,,0.00,WeatherDisplay:10.37,2013-03-19 08:51:00,
2013-03-19 19:56:00,70.9,58.5,30.09,East,95,0.0,0.0,65,0.00,CLR,,0.00,WeatherDisplay:10.37,2013-03-19 08:56:00,
2013-03-19 20:01:00,70.9,58.5,30.09,ESE,104,0.0,0.0,65,0.00,CLR,,0.00,WeatherDisplay:10.37,2013-03-19 09:01:00,
2013-03-19 20:06:00,70.7,58.4,30.10,ESE,106,0.0,0.0,65,0.00,CLR,,0.00,WeatherDisplay:10.37,2013-03-19 09:06:00,
2013-03-19 20:11:00,70.5,58.2,30.09,East,82,0.0,0.0,65,0.00,CLR,,0.00,WeatherDisplay:10.37,2013-03-19 09:11:00,
2013-03-19 20:16:00,70.5,58.2,30.10,SE,132,0.0,0.0,65,0.00,CLR,,0.00,WeatherDisplay:10.37,2013-03-19 09:16:00,
2013-03-19 20:21:00,70.4,58.1,30.10,SSE,164,0.0,0.0,65,0.00,CLR,,0.00,WeatherDisplay:10.37,2013-03-19 09:21:00,
2013-03-19 20:26:00,70.3,58.0,30.11,South,181,0.0,0.0,65,0.00,CLR,,0.00,WeatherDisplay:10.37,2013-03-19 09:26:00,
2013-03-19 20:31:00,70.2,57.9,30.11,South,191,0.0,0.0,65,0.00,CLR,,0.00,WeatherDisplay:10.37,2013-03-19 09:31:00,
2013-03-19 20:36:00,70.2,58.3,30.11,SSW,196,0.0,0.0,66,0.00,CLR,,0.00,WeatherDisplay:10.37,2013-03-19 09:36:00,
2013-03-19 20:41:00,70.0,58.1,30.11,SSW,200,0.0,0.0,66,0.00,CLR,,0.00,WeatherDisplay:10.37,2013-03-19 09:41:00,
2013-03-19 20:46:00,69.8,57.9,30.11,SSW,200,0.0,0.0,66,0.00,CLR,,0.00,WeatherDisplay:10.37,2013-03-19 09:46:00,
2013-03-19 20:51:00,69.6,57.8,30.11,SSW,205,0.0,0.0,66,0.00,CLR,,0.00,WeatherDisplay:10.37,2013-03-19 09:51:00,
2013-03-19 20:56:00,69.6,57.8,30.11,SSW,207,0.0,0.0,66,0.00,CLR,,0.00,WeatherDisplay:10.37,2013-03-19 09:56:00,
2013-03-19 21:01:00,69.4,57.6,30.11,SSW,201,0.0,0.0,66,0.00,CLR,,0.00,WeatherDisplay:10.37,2013-03-19 10:01:00,
2013-03-19 21:06:00,69.4,58.0,30.11,SSW,210,0.0,0.0,67,0.00,CLR,,0.00,WeatherDisplay:10.37,2013-03-19 10:06:00,
2013-03-19 21:11:00,69.3,57.8,30.12,WSW,251,0.0,0.0,67,0.00,CLR,,0.00,WeatherDisplay:10.37,2013-03-19 10:11:00,
2013-03-19 21:16:00,69.1,57.7,30.12,WNW,283,0.0,0.0,67,0.00,CLR,,0.00,WeatherDisplay:10.37,2013-03-19 10:16:00,
2013-03-19 21:31:00,68.7,57.7,30.12,West,273,0.0,0.0,68,0.00,CLR,,0.00,WeatherDisplay:10.37,2013-03-19 10:31:00,
2013-03-19 21:36:00,68.5,57.6,30.12,SW,225,0.0,2.0,68,0.00,CLR,,0.00,WeatherDisplay:10.37,2013-03-19 10:36:00,
2013-03-19 21:41:00,68.4,57.4,30.12,SSW,210,0.0,0.0,68,0.00,CLR,,0.00,WeatherDisplay:10.37,2013-03-19 10:41:00,
2013-03-19 21:46:00,68.4,57.8,30.12,SW,234,0.0,0.0,69,0.00,CLR,,0.00,WeatherDisplay:10.37,2013-03-19 10:46:00,
2013-03-19 21:51:00,68.2,57.6,30.13,NNW,343,0.0,0.0,69,0.00,CLR,,0.00,WeatherDisplay:10.37,2013-03-19 10:51:00,
2013-03-19 21:56:00,68.1,57.5,30.13,North,0,0.0,0.0,69,0.00,CLR,,0.00,WeatherDisplay:10.37,2013-03-19 10:56:00,
2013-03-19 22:01:00,67.8,57.3,30.13,West,272,0.0,0.0,69,0.00,CLR,,0.00,WeatherDisplay:10.37,2013-03-19 11:01:00,
2013-03-19 22:06:00,67.8,57.3,30.13,SW,224,0.0,0.0,69,0.00,CLR,,0.00,WeatherDisplay:10.37,2013-03-19 11:06:00,
2013-03-19 22:11:00,67.8,57.3,30.13,SSW,209,0.0,0.0,69,0.00,CLR,,0.00,WeatherDisplay:10.37,2013-03-19 11:11:00,
2013-03-19 22:16:00,67.6,57.1,30.13,South,189,0.0,0.0,69,0.00,CLR,,0.00,WeatherDisplay:10.37,2013-03-19 11:16:00,
2013-03-19 22:21:00,67.5,57.4,30.13,South,184,0.0,0.0,70,0.00,CLR,,0.00,WeatherDisplay:10.37,2013-03-19 11:21:00,
2013-03-19 22:36:00,67.1,57.0,30.13,West,270,0.0,0.0,70,0.00,CLR,,0.00,WeatherDisplay:10.37,2013-03-19 11:36:00,
2013-03-19 22:41:00,66.9,57.2,30.13,WNW,284,0.0,0.0,71,0.00,CLR,,0.00,WeatherDisplay:10.37,2013-03-19 11:41:00,
2013-03-19 22:51:00,66.7,57.0,30.13,SW,218,0.0,0.0,71,0.00,CLR,,0.00,WeatherDisplay:10.37,2013-03-19 11:51:00,
2013-03-19 22:56:00,66.6,57.3,30.12,ESE,118,0.0,0.0,72,0.00,CLR,,0.00,WeatherDisplay:10.37,2013-03-19 11:56:00,
2013-03-19 23:01:00,66.6,57.3,30.13,ESE,112,0.0,0.0,72,0.00,CLR,,0.00,WeatherDisplay:10.37,2013-03-19 12:01:00,
2013-03-19 23:06:00,66.4,57.1,30.13,ESE,112,0.0,0.0,72,0.00,CLR,,0.00,WeatherDisplay:10.37,2013-03-19 12:06:00,
2013-03-19 23:16:00,66.3,57.0,30.12,ESE,112,0.0,0.0,72,0.00,CLR,,0.00,WeatherDisplay:10.37,2013-03-19 12:16:00,
2013-03-19 23:26:00,66.0,57.1,30.13,NE,51,0.0,0.0,73,0.00,CLR,,0.00,WeatherDisplay:10.37,2013-03-19 12:26:00,
2013-03-19 23:46:00,66.0,57.1,30.12,SSE,148,0.0,0.0,73,0.00,CLR,,0.00,WeatherDisplay:10.37,2013-03-19 12:46:00,
2013-03-19 23:51:00,66.0,57.5,30.12,SSW,195,0.0,0.0,74,0.00,CLR,,0.00,WeatherDisplay:10.37,2013-03-19 12:51:00,
2013-03-19 23:56:00,65.8,57.3,30.12,SSW,203,0.0,0.0,74,0.00,CLR,,0.00,WeatherDisplay:10.37,2013-03-19 12:56:00,